Location: Huntsville
(41.2590°N, 111.7678°W)
Time: 17:43:34
(UTC+00:00)

Vanguard 1 Rocket - Visible Passes

Search period start: 18 June 2021 00:00
Search period end: 28 June 2021 00:00
Orbit: 651 x 4225 km, 34.3° (Epoch: 18 June)

Date Brightness Start Highest point End Pass type
(mag) Time Alt. Az. Time Alt. Az. Time Alt. Az.
18 Jun 9.1 04:30:36 10° SSW 04:37:58 38° SE 04:51:11 10° E visible
18 Jun 9.4 06:53:27 10° WSW 07:04:16 66° S 07:25:15 10° E visible
18 Jun 10.1 09:18:34 10° W 09:33:45 62° SSW 09:58:33 10° ESE visible
19 Jun 9.3 03:21:53 10° S 03:27:19 22° SE 03:35:29 10° E visible
19 Jun 9.1 05:43:04 10° WSW 05:51:54 57° SSE 06:09:18 10° E visible
19 Jun 9.7 08:07:15 10° W 08:19:59 66° S 08:43:18 10° ESE visible
19 Jun 10.5 10:33:28 10° W 10:50:10 48° SSW 11:14:07 10° SE visible
20 Jun 8.9 04:33:11 10° SW 04:40:23 43° SSE 04:53:44 10° E visible
20 Jun 9.3 06:56:24 10° WSW 07:06:54 66° S 07:27:28 10° ESE visible
20 Jun 10.1 09:21:32 10° W 09:36:10 56° SSW 10:00:14 10° SE visible
21 Jun 9.0 03:24:00 10° SSW 03:29:35 27° SE 03:38:31 10° E visible
21 Jun 9.0 05:45:56 10° WSW 05:54:32 60° SSE 06:11:38 10° E visible
21 Jun 9.7 08:10:14 10° W 08:22:35 62° S 08:45:14 10° ESE visible
21 Jun 10.5 10:36:36 10° W 10:52:24 42° SSW 11:15:07 10° SSE visible
22 Jun 8.7 04:35:54 10° SW 04:42:55 48° SSE 04:56:14 10° E visible
22 Jun 9.3 06:59:22 10° W 07:09:35 65° S 07:29:38 10° ESE visible
22 Jun 10.1 09:24:35 10° W 09:38:37 50° SSW 10:01:38 10° SE visible
23 Jun 8.8 03:26:23 10° SSW 03:32:00 32° SE 03:41:22 10° E visible
23 Jun 8.9 05:48:52 10° WSW 05:57:15 62° S 06:13:57 10° E visible
23 Jun 9.7 08:13:14 10° W 08:25:10 57° SSW 08:47:00 10° SE visible
23 Jun 10.6 10:39:57 10° W 10:54:41 35° SSW 11:15:40 10° SSE visible
24 Jun 8.6 04:38:44 10° WSW 04:45:35 52° SSE 04:58:43 10° E visible
24 Jun 9.2 07:02:23 10° W 07:12:18 62° S 07:31:41 10° ESE visible
24 Jun 10.1 09:27:44 10° W 09:41:04 43° SSW 10:02:44 10° SE visible
25 Jun 8.5 03:28:59 10° SW 03:34:33 37° SSE 03:44:05 10° E visible
25 Jun 8.8 05:51:52 10° WSW 06:00:01 61° S 06:16:14 10° ESE visible
25 Jun 9.7 08:16:19 10° W 08:27:47 51° SSW 08:48:33 10° SE visible
25 Jun 10.7 10:43:37 10° W 10:57:01 28° SW 11:15:42 10° SSE visible
26 Jun 8.5 04:41:39 10° WSW 04:48:20 55° SSE 05:01:10 10° E visible
26 Jun 9.2 07:05:26 10° W 07:15:01 57° S 07:33:37 10° ESE visible
26 Jun 10.2 09:31:03 10° W 09:43:34 36° SSW 10:03:28 10° SSE visible
27 Jun 8.3 03:31:44 10° SW 03:37:13 42° SSE 03:46:46 10° E visible
27 Jun 8.8 05:54:54 10° W 06:02:48 59° S 06:18:27 10° ESE visible
27 Jun 9.7 08:19:29 10° W 08:30:26 44° SSW 08:49:50 10° SE visible
27 Jun 10.8 10:47:51 10° WSW 10:59:26 22° SW 11:14:56 10° S visible
